Location: Eyeline Observatory
(43.2182°N, 78.8632°W)
Time: 21:09:13
(UTC-04:00)

Vanguard 1 Rocket - Visible Passes

Search period start: 26 April 2018 00:00
Search period end: 06 May 2018 00:00
Orbit: 654 x 4223 km, 34.3° (Epoch: 25 April)

Date Brightness Start Highest point End Pass type
(mag) Time Alt. Az. Time Alt. Az. Time Alt. Az.
26 Apr 11.7 02:59:19 10° SE 03:04:50 11° SE 03:10:02 10° ESE visible
26 Apr 11.1 05:13:31 10° SSW 05:33:45 34° SSE 05:47:35 10° E visible
27 Apr 11.4 04:02:20 10° S 04:20:23 25° SE 04:34:27 10° E visible
28 Apr 11.6 02:54:03 10° SSE 03:07:08 17° SE 03:18:44 10° ESE visible
28 Apr 10.9 05:14:17 10° SSW 05:36:18 40° SSE 05:51:10 10° E visible
29 Apr 11.2 04:03:35 12° SSW 04:22:44 32° SE 04:38:30 10° E visible
30 Apr 11.4 02:56:16 14° S 03:09:21 22° SE 03:24:07 10° E visible
30 Apr 10.8 05:15:26 10° SW 05:38:49 46° SSE 05:54:32 10° E visible
01 May 11.6 01:48:53 11° SE 01:56:18 13° SE 02:05:24 10° ESE visible
01 May 11.0 04:06:08 15° SSW 04:25:03 38° SSE 04:42:08 10° E visible
02 May 11.3 02:58:40 19° S 03:11:26 28° SE 03:28:25 10° E visible
02 May 10.7 05:16:57 10° SW 05:41:18 52° SSE 05:57:47 10° E visible
03 May 11.4 01:51:08 16° SSE 01:58:15 19° SE 02:12:12 10° E visible
03 May 10.9 04:08:22 18° SSW 04:27:19 44° SSE 04:45:31 10° E visible
04 May 11.1 03:00:45 23° S 03:13:29 34° SE 03:32:10 10° E visible
04 May 10.7 05:18:44 10° SW 05:43:47 57° SSE 06:00:56 10° E visible
05 May 11.2 01:53:04 21° SSE 02:00:07 24° SE 02:17:03 10° E visible
05 May 10.8 04:10:18 19° SW 04:29:34 50° SSE 04:48:43 10° E visible
